Trenton, NJ

10:49 PM EST on December 10, 2019 (GMT -0500)
Trenton Mercer

Weather History for KTTN - October, 2019

Change the Weather History Date:

Wednesday, October 2, 2019

  Actual Average Record
Temperature  
Mean Temperature 80 °F 60 °F  
Max Temperature 93 °F 70 °F 88 °F (1927)
Min Temperature 67 °F 49 °F 40 °F (2003)
Degree Days  
Heating Degree Days 0 6  
Month to date heating degree days 0 12  
Since 1 July heating degree days 18 77  
Cooling Degree Days 15 1  
Month to date cooling degree days 22 2  
Year to date cooling degree days 1159 957  
Growing Degree Days 30 (Base 50)    
Moisture  
Dew Point 67 °F    
Average Humidity 72    
Maximum Humidity 97    
Minimum Humidity 39    
Precipitation  
Precipitation 0.16 in 0.16 in 1.46 in (2015)
Month to date precipitation 0.16 0.31  
Year to date precipitation 38.82 35.56  
Sea Level Pressure  
Sea Level Pressure 29.83 in    
Wind  
Wind Speed 6 mph ()    
Max Wind Speed 28 mph    
Max Gust Speed 37 mph    
Visibility 9.4 miles    
Events Rain    
T = Trace of Precipitation, MM = Missing Value Source: Averaged Metar Reports

Daily Weather History Graph

Daily Weather History Graph

Search for Another Location

Airport or City:

Astronomy

Oct. 02, 2019 Rise Set
Actual Time 6:56 AM EDT 6:40 PM EDT
Civil Twilight 6:29 AM EDT 7:07 PM EDT
Nautical Twilight 5:57 AM EDT 7:38 PM EDT
Astronomical Twilight 5:25 AM EDT 8:10 PM EDT
Moon 11:19 AM EDT (10/2) 9:32 PM EDT (10/2)
Length of Visible Light 12h 38m
Length of Day
11h 43m
Waxing Crescent, 20% of the Moon is Illuminated
Oct 2
Waxing Crescent
Oct 5
First Quarter
Oct 13
Full
Oct 21
Last Quarter
Oct 27
New

Hourly Weather History & Observations

Time (EDT) Temp. Heat Index Dew Point Humidity Pressure Visibility Wind Dir Wind Speed Gust Speed Precip Events Conditions
12:53 AM 68.0 °F - 64.9 °F 90% 29.87 in 10.0 mi SSW 4.6 mph - N/A   Clear
1:53 AM 70.0 °F - 66.0 °F 87% 29.88 in 10.0 mi WSW 3.5 mph - N/A   Clear
2:53 AM 71.1 °F - 66.0 °F 84% 29.86 in 10.0 mi West 5.8 mph - N/A   Clear
3:53 AM 69.1 °F - 66.0 °F 90% 29.86 in 10.0 mi SW 4.6 mph - N/A   Clear
4:53 AM 69.1 °F - 66.0 °F 90% 29.85 in 10.0 mi SW 5.8 mph - N/A   Clear
5:53 AM 69.1 °F - 66.0 °F 90% 29.85 in 10.0 mi Variable 4.6 mph - N/A   Clear
6:53 AM 68.0 °F - 66.0 °F 93% 29.86 in 10.0 mi SW 4.6 mph - N/A   Clear
7:53 AM 69.1 °F - 68.0 °F 96% 29.86 in 9.0 mi SW 4.6 mph - N/A   Clear
8:53 AM 73.0 °F - 69.1 °F 87% 29.86 in 10.0 mi WSW 4.6 mph - N/A   Clear
9:53 AM 80.1 °F 82.9 °F 69.1 °F 69% 29.85 in 10.0 mi WSW 6.9 mph - N/A   Clear
10:53 AM 84.9 °F 88.2 °F 68.0 °F 57% 29.83 in 10.0 mi West 9.2 mph - N/A   Clear
11:53 AM 89.1 °F 92.9 °F 68.0 °F 50% 29.81 in 10.0 mi West 5.8 mph - N/A   Clear
12:53 PM 91.0 °F 93.8 °F 66.0 °F 44% 29.79 in 10.0 mi West 9.2 mph - N/A   Partly Cloudy
1:53 PM 91.9 °F 94.1 °F 64.9 °F 41% 29.77 in 10.0 mi West 9.2 mph 20.7 mph N/A   Partly Cloudy
2:53 PM 91.0 °F 93.0 °F 64.9 °F 42% 29.76 in 10.0 mi West 9.2 mph - N/A   Partly Cloudy
3:53 PM 91.9 °F 93.3 °F 64.0 °F 39% 29.75 in 10.0 mi West 11.5 mph 18.4 mph N/A   Clear
4:53 PM 91.0 °F 92.6 °F 64.0 °F 41% 29.74 in 10.0 mi West 9.2 mph - N/A   Clear
5:53 PM 90.0 °F 91.3 °F 64.0 °F 42% 29.75 in 10.0 mi West 8.1 mph - N/A   Clear
6:53 PM 87.1 °F 88.3 °F 64.0 °F 46% 29.77 in 10.0 mi West 4.6 mph - N/A   Partly Cloudy
7:42 PM 73.0 °F - 69.1 °F 87% 29.85 in 2.5 mi North 16.1 mph 28.8 mph 0.10 in Rain Heavy Rain
7:53 PM 73.0 °F - 69.1 °F 87% 29.83 in 4.0 mi NNE 10.4 mph 20.7 mph 0.14 in Rain Rain
8:53 PM 73.0 °F - 70.0 °F 90% 29.85 in 10.0 mi North 4.6 mph - 0.00 in   Overcast
9:53 PM 73.0 °F - 70.0 °F 90% 29.88 in 10.0 mi North 12.7 mph - 0.01 in Rain Light Rain
10:53 PM 73.0 °F - 70.0 °F 90% 29.90 in 10.0 mi NNE 8.1 mph - 0.01 in   Overcast
11:53 PM 70.0 °F - 66.0 °F 87% 29.91 in 10.0 mi NE 12.7 mph - N/A   Mostly Cloudy